Vorticity
5 6 5 3 -0 0 -1 -2 3 3 6 5 6 5 2 2 3 3 2 6 6 6 7 6 3 3 2 3 2 1 1 3 4 4 3 2 1 1 1 1 1 0 2 2 3 3 0 6 6
6 6 7 6 4 -2 -4 -3 4 5 2 6 5 6 5 1 3 3 6 5 4 6 6 6 5 3 2 3 3 2 2 3 2 2 2 2 1 1 2 2 1 1 2 2 1 5 5 4 5
13 6 9 3 5 1 2 1 -0 5 4 3 6 10 6 2 3 3 4 3 5 6 5 6 6 4 3 3 3 3 3 2 2 2 2 2 2 1 0 1 1 3 4 5 6 5 3 2 1
29 10 6 -1 4 8 3 0 0 5 5 1 2 6 5 1 2 2 3 4 5 6 5 5 5 5 5 4 4 3 3 3 2 2 2 2 2 2 1 3 6 6 6 7 7 8 9 9 3
21 28 8 7 2 6 5 -3 -2 3 4 8 -4 11 4 4 2 3 2 3 3 5 6 6 5 4 3 1 0 1 2 2 2 2 2 3 3 4 6 7 6 6 6 6 7 8 9 9 10
21 23 25 5 9 7 12 1 -2 0 1 4 2 5 6 6 1 1 3 2 2 5 6 6 6 5 3 3 5 6 5 5 4 4 4 5 6 8 7 6 5 5 7 8 8 9 9 9 10
18 10 22 27 9 6 2 6 1 -6 2 6 5 1 8 5 2 1 3 2 2 4 4 6 6 6 6 5 6 6 5 4 3 4 5 6 7 7 6 5 5 5 6 8 9 8 8 7 9
25 15 10 26 20 10 1 6 3 -1 0 3 3 3 4 7 4 2 2 2 3 4 5 6 6 6 6 6 6 5 4 4 3 5 5 7 9 7 4 4 5 6 6 5 5 7 8 8 8
20 6 27 9 34 13 7 -0 9 0 -1 4 4 9 -0 9 6 2 1 3 3 3 5 6 6 6 6 6 6 6 6 5 4 6 7 8 6 4 4 4 4 6 5 4 4 5 6 7 7
10 17 34 8 25 24 2 -11 15 -0 2 0 2 5 1 9 6 2 1 4 4 3 5 5 6 5 6 6 6 6 5 5 6 8 7 5 4 4 3 4 4 4 5 4 5 4 4 5 6
3 13 38 6 8 31 16 -1 -23 22 -1 -0 -2 6 1 6 6 3 3 3 2 4 5 5 5 6 5 5 5 5 5 5 7 9 6 4 3 4 3 4 4 4 4 4 5 4 4 5 6
8 16 38 13 6 18 19 14 16 2 5 -0 5 4 5 3 6 2 3 2 3 4 3 5 5 6 5 4 5 6 6 6 8 8 4 3 4 4 3 4 4 4 4 5 4 4 6 6 6
12 20 35 21 8 10 20 18 -45 -29 10 -3 4 5 4 4 7 1 3 3 3 4 4 5 5 7 5 4 5 6 7 6 5 5 5 5 5 5 4 4 4 5 4 4 5 6 4 5 6
12 18 36 20 11 7 19 21 39 19 5 0 -0 2 3 0 4 5 2 4 3 3 2 3 6 6 5 4 4 7 6 5 4 5 6 6 6 5 4 4 5 4 4 5 5 4 4 4 5
14 18 33 18 16 9 15 20 31 -12 -29 24 -3 5 4 5 2 5 2 4 2 3 3 4 5 6 5 4 4 7 7 6 6 6 7 7 6 6 4 5 4 4 4 5 4 4 3 4 5
14 14 22 23 28 12 5 25 20 24 40 -1 3 -5 5 3 2 5 4 4 4 4 4 4 6 6 4 4 4 6 7 7 6 7 7 7 6 5 5 4 4 3 5 4 4 3 3 3 3
4 29 17 23 20 14 14 16 16 23 24 28 35 4 -2 6 1 6 5 4 3 3 3 3 4 7 5 4 4 5 7 8 7 7 7 6 6 5 5 4 3 4 5 4 4 4 3 2 4
14 14 5 19 18 15 9 12 19 21 27 15 -15 27 -3 -1 4 4 6 7 5 3 3 4 4 6 6 5 4 4 5 6 6 7 7 7 4 5 3 3 5 5 5 4 4 4 4 2 3
8 6 6 14 6 12 13 12 11 19 18 17 13 -11 7 -0 1 6 5 5 3 3 3 5 5 6 7 5 4 3 4 6 5 5 6 6 5 3 2 3 5 6 5 4 4 3 3 3 2
8 10 4 5 13 12 9 12 20 13 16 13 23 13 -16 5 11 7 5 6 3 4 3 4 7 6 6 5 4 4 4 5 4 5 6 5 4 3 2 3 5 5 5 5 4 4 3 3 3
5 18 -3 -4 -1 9 13 13 13 9 12 7 20 10 25 15 -3 6 1 5 6 4 3 5 6 8 6 6 5 5 4 4 4 5 5 4 3 2 3 3 5 5 5 5 4 4 3 3 3
6 19 14 16 17 4 13 6 13 14 7 12 10 6 14 13 -7 8 -6 0 8 5 1 2 -1 7 7 6 5 4 3 4 4 4 5 4 3 3 3 3 4 4 5 5 5 4 4 4 4
11 10 12 8 13 7 14 10 17 21 6 10 9 23 11 15 20 -6 36 9 3 4 5 4 -6 6 8 8 7 5 4 4 4 4 5 4 4 3 4 3 4 4 4 5 5 4 4 4 4
6 7 7 -1 14 7 2 11 10 10 24 23 28 11 15 27 15 34 24 4 11 4 -11 2 -0 3 8 7 7 6 5 4 4 4 5 5 4 4 4 4 4 5 4 4 5 4 4 5 4
9 14 6 17 11 18 9 7 17 11 10 8 17 29 32 14 5 17 -21 14 -0 3 11 4 8 1 11 8 7 7 5 4 4 5 5 4 4 4 4 4 5 5 4 5 5 5 4 4 4
10 22 6 24 3 8 16 7 32 17 12 11 9 3 17 24 17 6 22 67 18 -7 8 6 7 5 8 7 7 6 5 5 4 5 5 5 4 4 5 4 5 5 5 5 4 5 4 4 4
12 12 21 -16 15 23 2 15 18 14 15 17 14 13 0 3 1 22 40 2 -1 9 45 -3 8 5 8 5 6 4 6 5 5 5 6 5 4 4 5 5 5 5 5 4 4 4 4 4 4
13 6 13 17 -11 -3 7 1 36 17 14 14 11 11 8 23 16 10 2 9 1 5 13 46 2 4 7 5 6 5 6 6 6 5 5 5 5 4 5 5 5 5 4 4 4 4 4 4 4
19 6 6 3 23 9 6 11 12 19 11 15 15 9 11 15 9 3 20 8 -2 -0 26 4 1 9 7 5 6 7 7 6 5 6 5 5 4 6 6 5 5 5 4 4 4 3 4 3 3
8 6 5 -16 17 16 14 8 1 12 5 14 16 9 10 12 7 6 8 17 -3 -3 1 2 5 4 4 5 5 6 6 5 6 5 5 5 6 6 6 5 5 4 4 4 4 3 4 3 4
Height
5821 5824 5827 5831 5835 5835 5840 5847 5846 5847 5850 5851 5853 5856 5857 5857 5858 5861 5861 5861 5861 5862 5863 5864 5864 5865 5865 5866 5867 5867 5868 5869 5869 5870 5870 5870 5869 5869 5869 5868 5867 5867 5865 5864 5862 5861 5859 5857 5854
5812 5815 5819 5822 5826 5827 5838 5843 5842 5842 5844 5846 5849 5852 5855 5854 5855 5857 5859 5859 5860 5860 5862 5863 5864 5864 5864 5865 5866 5867 5868 5868 5869 5869 5869 5869 5869 5869 5869 5868 5867 5865 5864 5863 5861 5860 5858 5857 5855
5801 5804 5810 5811 5814 5819 5833 5838 5835 5835 5840 5843 5845 5849 5850 5853 5853 5855 5856 5857 5858 5859 5860 5861 5862 5863 5863 5864 5865 5866 5867 5867 5868 5868 5868 5868 5868 5868 5867 5866 5865 5864 5862 5861 5860 5858 5857 5856 5854
5788 5793 5797 5798 5803 5816 5826 5831 5829 5828 5834 5838 5841 5844 5846 5849 5850 5851 5854 5855 5856 5857 5858 5859 5860 5861 5862 5862 5863 5864 5865 5866 5866 5867 5867 5867 5866 5866 5866 5864 5863 5862 5861 5860 5858 5857 5855 5854 5853
5779 5781 5783 5787 5794 5808 5817 5820 5821 5822 5827 5832 5836 5839 5841 5845 5846 5848 5850 5852 5853 5855 5856 5857 5858 5859 5860 5861 5862 5863 5863 5864 5864 5865 5865 5865 5865 5864 5864 5863 5862 5861 5860 5858 5857 5855 5853 5852 5851
5770 5771 5772 5775 5786 5799 5807 5811 5813 5814 5819 5825 5829 5833 5837 5841 5842 5844 5847 5848 5850 5852 5854 5855 5856 5856 5857 5859 5859 5860 5861 5862 5863 5863 5863 5863 5863 5862 5862 5861 5860 5859 5858 5857 5855 5853 5852 5850 5849
5761 5761 5763 5769 5779 5789 5796 5804 5806 5807 5809 5817 5822 5827 5832 5835 5838 5840 5843 5845 5847 5849 5851 5852 5853 5854 5855 5856 5857 5858 5859 5860 5860 5860 5860 5860 5860 5860 5860 5859 5859 5858 5856 5855 5854 5852 5850 5849 5847
5752 5752 5754 5756 5766 5777 5785 5793 5795 5798 5801 5808 5813 5818 5826 5831 5833 5835 5838 5842 5844 5846 5847 5849 5850 5851 5852 5853 5854 5855 5856 5857 5858 5858 5858 5858 5858 5858 5858 5857 5856 5856 5855 5853 5852 5850 5849 5847 5846
5741 5741 5745 5749 5754 5766 5773 5780 5782 5787 5792 5800 5807 5813 5820 5824 5827 5831 5833 5837 5840 5842 5843 5845 5846 5848 5849 5850 5851 5852 5853 5854 5855 5855 5855 5856 5856 5856 5855 5855 5854 5853 5852 5851 5850 5848 5847 5845 5844
5731 5732 5736 5741 5744 5752 5758 5769 5770 5778 5780 5789 5798 5806 5812 5817 5821 5826 5829 5832 5835 5838 5839 5841 5843 5844 5846 5847 5848 5849 5850 5851 5851 5852 5853 5853 5853 5853 5853 5852 5851 5851 5850 5849 5847 5846 5845 5843 5842
5722 5723 5725 5728 5732 5736 5741 5753 5755 5766 5772 5778 5788 5797 5804 5809 5816 5820 5823 5826 5829 5833 5835 5837 5839 5840 5842 5844 5845 5846 5847 5848 5848 5849 5850 5850 5851 5851 5850 5849 5849 5848 5847 5846 5845 5843 5842 5841 5840
5711 5711 5710 5715 5719 5720 5726 5735 5743 5753 5762 5769 5779 5789 5794 5799 5806 5812 5816 5821 5825 5826 5830 5833 5835 5836 5838 5841 5842 5843 5844 5845 5845 5846 5847 5847 5847 5847 5847 5846 5846 5845 5844 5843 5842 5841 5839 5837 5836
5701 5700 5698 5701 5705 5709 5712 5718 5728 5739 5752 5760 5770 5779 5786 5794 5800 5804 5809 5813 5819 5822 5825 5827 5830 5832 5834 5836 5838 5839 5840 5841 5842 5843 5843 5844 5844 5844 5843 5843 5842 5842 5841 5840 5839 5837 5835 5834 5832
5689 5688 5686 5687 5693 5695 5700 5708 5713 5727 5738 5750 5760 5768 5777 5786 5793 5798 5803 5809 5812 5815 5818 5822 5824 5827 5830 5831 5833 5835 5835 5837 5838 5839 5840 5840 5840 5840 5840 5839 5839 5838 5837 5836 5835 5833 5832 5830 5828
5678 5676 5676 5676 5683 5687 5689 5690 5700 5720 5730 5740 5750 5759 5768 5776 5785 5791 5795 5799 5804 5807 5811 5816 5819 5822 5824 5826 5829 5830 5831 5833 5834 5835 5835 5836 5836 5836 5836 5835 5835 5834 5833 5832 5831 5829 5827 5825 5824
5669 5666 5664 5672 5673 5678 5679 5686 5698 5710 5718 5730 5739 5749 5758 5767 5776 5783 5788 5793 5799 5802 5805 5808 5813 5816 5818 5820 5823 5825 5827 5828 5829 5831 5831 5832 5832 5832 5831 5831 5831 5830 5829 5828 5826 5824 5822 5820 5818
5660 5659 5659 5660 5663 5667 5671 5680 5692 5697 5703 5715 5723 5735 5747 5755 5765 5774 5780 5786 5793 5795 5798 5802 5806 5810 5812 5814 5817 5820 5822 5823 5825 5826 5826 5827 5828 5828 5827 5826 5826 5826 5824 5823 5821 5819 5817 5814 5812
5650 5649 5652 5654 5659 5660 5663 5670 5681 5688 5689 5703 5713 5722 5735 5746 5757 5765 5770 5777 5785 5789 5792 5796 5800 5804 5807 5809 5811 5814 5816 5818 5819 5821 5822 5823 5823 5822 5822 5821 5821 5820 5819 5817 5816 5814 5812 5809 5806
5641 5640 5643 5648 5651 5651 5658 5660 5673 5679 5680 5689 5699 5710 5723 5737 5745 5754 5761 5768 5776 5781 5786 5791 5794 5798 5800 5802 5804 5807 5811 5813 5814 5816 5817 5818 5817 5817 5816 5816 5815 5814 5813 5812 5810 5809 5807 5804 5800
5632 5633 5637 5642 5644 5644 5648 5649 5663 5666 5669 5682 5692 5700 5709 5722 5731 5743 5753 5759 5768 5774 5779 5783 5788 5791 5794 5795 5797 5801 5805 5807 5809 5810 5811 5812 5811 5810 5810 5810 5809 5808 5807 5805 5803 5802 5800 5798 5795
5625 5624 5630 5633 5635 5636 5639 5638 5646 5658 5661 5668 5677 5690 5699 5710 5722 5731 5744 5752 5759 5766 5772 5776 5780 5783 5786 5789 5792 5795 5797 5800 5802 5803 5804 5805 5804 5804 5804 5803 5802 5801 5800 5799 5797 5795 5793 5790 5788
5614 5619 5619 5622 5624 5628 5630 5630 5640 5649 5652 5659 5672 5683 5696 5705 5718 5724 5733 5743 5751 5757 5761 5766 5771 5776 5779 5783 5786 5787 5790 5793 5794 5797 5798 5797 5798 5797 5797 5796 5795 5794 5793 5791 5789 5787 5784 5782 5779
5605 5606 5608 5612 5613 5616 5619 5618 5635 5638 5639 5652 5666 5677 5689 5700 5709 5715 5721 5733 5740 5745 5750 5755 5760 5768 5772 5775 5777 5780 5784 5785 5787 5789 5790 5790 5790 5790 5790 5789 5788 5786 5785 5782 5781 5778 5775 5772 5770
5594 5594 5597 5600 5603 5599 5609 5612 5623 5629 5643 5651 5660 5669 5679 5688 5697 5702 5710 5715 5726 5733 5739 5746 5752 5759 5763 5767 5770 5773 5776 5778 5780 5781 5781 5782 5783 5783 5782 5781 5780 5778 5776 5773 5771 5769 5766 5762 5759
5584 5587 5589 5591 5589 5588 5603 5600 5616 5628 5634 5644 5652 5659 5667 5677 5684 5693 5700 5709 5714 5724 5730 5737 5743 5749 5755 5758 5762 5765 5767 5769 5772 5773 5773 5774 5774 5774 5774 5772 5771 5769 5767 5764 5761 5759 5755 5751 5748
5578 5581 5583 5585 5581 5589 5591 5590 5614 5623 5625 5633 5640 5647 5653 5662 5676 5684 5691 5700 5705 5711 5718 5725 5731 5739 5746 5749 5753 5755 5758 5761 5763 5764 5765 5765 5766 5765 5765 5763 5762 5760 5757 5755 5751 5748 5744 5740 5736
5568 5564 5580 5577 5577 5581 5586 5592 5601 5609 5616 5623 5632 5639 5649 5656 5670 5676 5684 5692 5699 5704 5711 5715 5718 5728 5735 5740 5744 5746 5749 5752 5754 5755 5757 5756 5756 5756 5755 5754 5752 5750 5747 5744 5741 5737 5733 5728 5723
5555 5566 5566 5567 5571 5570 5577 5583 5595 5602 5612 5617 5623 5633 5642 5649 5658 5669 5677 5684 5691 5696 5703 5705 5711 5720 5725 5729 5734 5737 5740 5742 5745 5746 5747 5747 5747 5746 5745 5744 5741 5739 5736 5733 5729 5725 5721 5716 5710
5550 5551 5556 5561 5564 5564 5572 5579 5589 5592 5598 5608 5616 5622 5631 5639 5648 5657 5667 5674 5684 5688 5694 5699 5705 5712 5717 5721 5725 5728 5730 5732 5735 5736 5737 5737 5737 5736 5735 5733 5731 5728 5725 5722 5718 5713 5708 5702 5696
5539 5544 5549 5554 5559 5562 5566 5571 5580 5586 5592 5601 5606 5613 5622 5631 5640 5648 5656 5664 5675 5680 5686 5692 5696 5704 5709 5712 5715 5719 5721 5724 5726 5727 5727 5728 5727 5726 5725 5723 5720 5717 5714 5710 5706 5700 5694 5689 5682